User: anonymous   Login
Location: Hradec Kralove
(50.2170°N, 15.8330°E)
Time: 10:55:44
(UTC+02:00)
Language:

Explorer 7 - Orbit

View from above orbital plane
View from above orbital plane
View from above satellite
View from above satellite

Ground track
Ground track

The orbit data is extracted from the following two-line orbital elements,

1 00022U 59009A   24149.88659951  .00007683  00000-0  45636-3 0  9999
2 00022  50.2770 145.2465 0114168  33.7796 327.0363 15.06870266686498
Epoch (UTC): 28 May 2024 21:16:42
Eccentricity: 0.0114168
inclination: 50.2770°
perigee height: 467 km
apogee height: 625 km
right ascension of ascending node: 145.2465°
argument of perigee: 33.7796°
revolutions per day: 15.06870266
mean anomaly at epoch: 327.0363°
orbit number at epoch: 68649

The dashed part of the orbit path shows where the satellite is in the earth's shadow,  

DLR